This is the latest recevied weather packets stored in our database for station/object N7WSS. If no packets are shown the sender has not sent any weather packets the latest 10 day(s).
| Time | Temp. | Humidity | Pressure | Rain* | Wind** | Luminosity | Snow |
|---|---|---|---|---|---|---|---|
| 1788180517 | 20° C | 93% | 1016 hPa | 0 mm | - | - | - |
| 1788180213 | 20° C | 93% | 1015.9 hPa | 0 mm | - | - | - |
| 1788179913 | 20° C | 93% | 1016.1 hPa | 0 mm | - | - | - |
| 1788179612 | 20° C | 94% | 1016 hPa | 0 mm | - | - | - |
| 1788179307 | 20° C | 94% | 1015.7 hPa | 0 mm | - | - | - |
| 1788179002 | 20° C | 93% | 1016 hPa | 0 mm | - | - | - |
| 1788178702 | 20° C | 93% | 1016.1 hPa | 0 mm | - | - | - |
| 1788178399 | 20° C | 93% | 1016.1 hPa | 3.05 mm | - | - | - |
| 1788178094 | 20° C | 93% | 1016 hPa | 6.1 mm | - | - | - |
| 1788177788 | 20° C | 92% | 1015.6 hPa | 21.08 mm | - | - | - |
| 1788177483 | 20.56° C | 91% | 1015.6 hPa | 30.73 mm | - | - | - |
| 1788177180 | 20.56° C | 89% | 1015.7 hPa | 10.67 mm | - | - | - |
| 1788176879 | 21.67° C | 83% | 1015.6 hPa | 0 mm | - | - | - |
| 1788176579 | 22.22° C | 79% | 1015.5 hPa | 0 mm | - | - | - |
| 1788176274 | 22.78° C | 74% | 1015 hPa | 0 mm | - | - | - |
| 1788175974 | 22.78° C | 72% | 1014.9 hPa | 0 mm | - | - | - |
| 1788175674 | 23.33° C | 69% | 1014.7 hPa | 0 mm | - | - | - |
| 1788175369 | 24.44° C | 64% | 1014.5 hPa | 0 mm | - | - | - |
| 1788175064 | 26.67° C | 56% | 1014.7 hPa | 0 mm | - | - | - |
| 1788174761 | 26.67° C | 52% | 1014 hPa | 0 mm | - | - | - |
| 1788174456 | 26.67° C | 53% | 1013.7 hPa | 0 mm | - | - | - |
| 1788174151 | 26.11° C | 53% | 1013.8 hPa | 0 mm | - | - | - |
| 1788173850 | 26.11° C | 54% | 1013.5 hPa | 0 mm | - | - | - |
| 1788173546 | 26.11° C | 54% | 1013.5 hPa | 0 mm | - | - | - |
| 1788173240 | 25.56° C | 54% | 1013.2 hPa | 0 mm | - | - | - |
* Rain latest hour (hover to see other rain measurements)
** Current wind speed in m/s (hover to see current wind gust speed)